Hourly Weather Alikonovka

Today, 24 February, Wednesday

Time Temperature Precipitation Wind Pressure Humidity
00:00 -9°C° 0.1 mm 1 mps 697 mmHg 96%
01:00 -9°C° 0 mm 1 mps 697 mmHg 95%
02:00 -10°C° 0 mm 1 mps 697 mmHg 95%
03:00 -11°C° 0 mm 1 mps 697 mmHg 93%
04:00 -11°C° 0 mm 1 mps 697 mmHg 92%
05:00 -11°C° 0 mm 1 mps 698 mmHg 90%
06:00 -11°C° 0 mm 1 mps 698 mmHg 89%
07:00 -10°C° 0 mm 1 mps 698 mmHg 87%
08:00 -9°C° 0 mm 1 mps 698 mmHg 85%
09:00 -8°C° 0 mm 1 mps 698 mmHg 85%
10:00 -7°C° 0 mm 1 mps 698 mmHg 83%
11:00 -7°C° 0 mm 2 mps 698 mmHg 82%
12:00 -6°C° 0 mm 2 mps 698 mmHg 81%
13:00 -6°C° 0 mm 2 mps 698 mmHg 83%
14:00 -6°C° 0 mm 2 mps 697 mmHg 85%
15:00 -6°C° 0 mm 2 mps 697 mmHg 86%
16:00 -6°C° 0 mm 1 mps 697 mmHg 88%
17:00 -8°C° 0 mm 1 mps 697 mmHg 89%
18:00 -9°C° 0 mm 1 mps 696 mmHg 91%
19:00 -9°C° 0 mm 1 mps 697 mmHg 86%
20:00 -9°C° 0 mm 1 mps 697 mmHg 80%
21:00 -9°C° 0 mm 1 mps 697 mmHg 75%
22:00 -9°C° 0 mm 1 mps 697 mmHg 71%
23:00 -9°C° 0 mm 1 mps 697 mmHg 67%

Tomorrow, 25 February, Thursday

Time Temperature Precipitation Wind Pressure Humidity
00:00 -9°C° 0 mm 1 mps 697 mmHg 63%
01:00 -10°C° 0 mm 2 mps 697 mmHg 60%
02:00 -10°C° 0 mm 2 mps 697 mmHg 58%
03:00 -9°C° 0 mm 2 mps 697 mmHg 55%
04:00 -9°C° 0 mm 2 mps 697 mmHg 56%
05:00 -7°C° 0 mm 1 mps 697 mmHg 57%
06:00 -7°C° 0 mm 1 mps 698 mmHg 57%
07:00 -4°C° 0 mm 1 mps 698 mmHg 61%
08:00 -3°C° 0 mm 1 mps 698 mmHg 65%
09:00 -1°C° 0 mm 1 mps 698 mmHg 68%
10:00 0°C° 0 mm 1 mps 698 mmHg 69%
11:00 +1°C° 0 mm 1 mps 698 mmHg 69%
12:00 +2°C° 0 mm 1 mps 698 mmHg 69%
13:00 +1°C° 0 mm 2 mps 698 mmHg 74%
14:00 +1°C° 0 mm 2 mps 697 mmHg 78%
15:00 0°C° 0 mm 3 mps 697 mmHg 83%
16:00 -1°C° 0 mm 2 mps 697 mmHg 85%
17:00 -2°C° 0 mm 2 mps 697 mmHg 87%
18:00 -2°C° 0 mm 1 mps 696 mmHg 89%
19:00 -1°C° 0 mm 1 mps 696 mmHg 86%
20:00 -1°C° 0 mm 1 mps 696 mmHg 84%
21:00 -1°C° 0 mm 1 mps 697 mmHg 81%
22:00 -1°C° 0 mm 1 mps 696 mmHg 81%
23:00 0°C° 0 mm 1 mps 696 mmHg 80%

Day after tomorrow, 26 February, Friday

Time Temperature Precipitation Wind Pressure Humidity
00:00 0°C° 0 mm 1 mps 696 mmHg 80%
01:00 -1°C° 0 mm 1 mps 695 mmHg 80%
02:00 -2°C° 0 mm 1 mps 695 mmHg 80%
03:00 -2°C° 0 mm 1 mps 695 mmHg 80%
04:00 -4°C° 0 mm 2 mps 695 mmHg 79%
05:00 -4°C° 0 mm 2 mps 695 mmHg 79%
06:00 -4°C° 0 mm 2 mps 695 mmHg 78%
07:00 -4°C° 0 mm 3 mps 695 mmHg 78%
08:00 -2°C° 0 mm 3 mps 695 mmHg 78%
09:00 -1°C° 0 mm 3 mps 695 mmHg 77%
10:00 0°C° 0 mm 3 mps 695 mmHg 78%
11:00 +1°C° 0 mm 3 mps 695 mmHg 79%
12:00 +2°C° 0 mm 3 mps 694 mmHg 80%
13:00 +2°C° 0 mm 3 mps 694 mmHg 81%
14:00 +2°C° 0 mm 3 mps 694 mmHg 82%
15:00 +2°C° 0 mm 3 mps 694 mmHg 83%
16:00 +2°C° 0 mm 2 mps 694 mmHg 83%
17:00 +1°C° 0 mm 2 mps 693 mmHg 84%
18:00 -1°C° 0 mm 2 mps 693 mmHg 85%
19:00 -2°C° 0 mm 2 mps 693 mmHg 81%
20:00 -2°C° 0 mm 2 mps 693 mmHg 78%
21:00 -2°C° 0 mm 2 mps 693 mmHg 74%
22:00 -2°C° 0 mm 2 mps 693 mmHg 73%
23:00 -2°C° 0 mm 2 mps 692 mmHg 71%

27 February, Saturday

Time Temperature Precipitation Wind Pressure Humidity
00:00 -2°C° 0 mm 2 mps 692 mmHg 69%
01:00 -2°C° 0 mm 3 mps 692 mmHg 69%
02:00 -2°C° 0 mm 3 mps 691 mmHg 69%
03:00 -2°C° 0 mm 3 mps 691 mmHg 70%
04:00 -2°C° 0 mm 3 mps 691 mmHg 70%
05:00 -2°C° 0 mm 3 mps 691 mmHg 71%
06:00 -2°C° 0 mm 3 mps 690 mmHg 72%
07:00 -1°C° 0 mm 3 mps 690 mmHg 73%
08:00 +1°C° 0 mm 2 mps 690 mmHg 74%
09:00 +2°C° 0 mm 2 mps 690 mmHg 76%
10:00 +3°C° 0 mm 2 mps 690 mmHg 78%
11:00 +4°C° 0 mm 2 mps 690 mmHg 80%
12:00 +6°C° 0 mm 1 mps 689 mmHg 82%
13:00 +6°C° 0 mm 1 mps 689 mmHg 83%
14:00 +6°C° 0 mm 1 mps 689 mmHg 85%
15:00 +6°C° 0 mm 1 mps 688 mmHg 86%
16:00 +5°C° 0 mm 1 mps 688 mmHg 87%
17:00 +4°C° 0 mm 1 mps 688 mmHg 89%
18:00 +3°C° 0 mm 1 mps 688 mmHg 90%
19:00 +3°C° 0 mm 1 mps 688 mmHg 89%
20:00 +3°C° 0 mm 1 mps 688 mmHg 88%
21:00 +3°C° 0 mm 1 mps 688 mmHg 87%
22:00 +3°C° 0 mm 1 mps 687 mmHg 84%
23:00 +2°C° 0 mm 2 mps 687 mmHg 82%

28 February, Sunday

Time Temperature Precipitation Wind Pressure Humidity
00:00 +1°C° 0 mm 2 mps 687 mmHg 79%
01:00 +1°C° 0 mm 2 mps 686 mmHg 74%
02:00 +1°C° 0 mm 2 mps 686 mmHg 69%
03:00 +1°C° 0 mm 2 mps 686 mmHg 64%
04:00 +1°C° 0 mm 1 mps 686 mmHg 69%
05:00 +1°C° 0 mm 1 mps 685 mmHg 73%
06:00 +1°C° 0 mm 1 mps 685 mmHg 78%
07:00 +1°C° 0 mm 1 mps 685 mmHg 81%
08:00 +2°C° 0 mm 1 mps 685 mmHg 84%
09:00 +2°C° 0 mm 1 mps 685 mmHg 88%
10:00 +2°C° 0.1 mm 1 mps 685 mmHg 90%
11:00 +2°C° 0.1 mm 1 mps 685 mmHg 93%
12:00 +2°C° 0.1 mm 1 mps 685 mmHg 95%
13:00 +2°C° 0.5 mm 1 mps 686 mmHg 95%
14:00 +3°C° 0.5 mm 1 mps 686 mmHg 96%
15:00 +3°C° 0.5 mm 1 mps 686 mmHg 96%
16:00 +2°C° 1.7 mm 1 mps 686 mmHg 97%
17:00 -1°C° 1.7 mm 2 mps 686 mmHg 97%
18:00 -1°C° 1.7 mm 2 mps 687 mmHg 97%
19:00 -1°C° 0.8 mm 2 mps 687 mmHg 97%
20:00 -2°C° 0.8 mm 2 mps 688 mmHg 97%
21:00 -2°C° 0.8 mm 2 mps 689 mmHg 96%
22:00 -4°C° 0.1 mm 3 mps 689 mmHg 94%
23:00 -5°C° 0.1 mm 3 mps 689 mmHg 91%

1 March, Monday

Time Temperature Precipitation Wind Pressure Humidity
00:00 -6°C° 0.1 mm 3 mps 689 mmHg 89%
01:00 -6°C° 0 mm 3 mps 690 mmHg 88%
02:00 -6°C° 0 mm 3 mps 690 mmHg 87%
03:00 -7°C° 0 mm 3 mps 690 mmHg 86%
04:00 -6°C° 0 mm 2 mps 690 mmHg 85%
05:00 -6°C° 0 mm 2 mps 691 mmHg 84%
06:00 -7°C° 0 mm 2 mps 691 mmHg 82%
07:00 -6°C° 0 mm 2 mps 691 mmHg 82%
08:00 -4°C° 0 mm 2 mps 692 mmHg 81%
09:00 -3°C° 0 mm 2 mps 692 mmHg 81%
10:00 -3°C° 0 mm 2 mps 692 mmHg 83%
11:00 -2°C° 0 mm 3 mps 693 mmHg 86%
12:00 -2°C° 0 mm 3 mps 693 mmHg 89%
13:00 -2°C° 0.1 mm 3 mps 693 mmHg 90%
14:00 -2°C° 0.1 mm 3 mps 693 mmHg 90%
15:00 -2°C° 0.1 mm 2 mps 693 mmHg 91%
16:00 -2°C° 0.1 mm 2 mps 693 mmHg 92%
17:00 -1°C° 0.1 mm 1 mps 693 mmHg 94%
18:00 -2°C° 0.1 mm 1 mps 694 mmHg 95%
19:00 -2°C° 0.1 mm 1 mps 694 mmHg 95%
20:00 -2°C° 0.1 mm 1 mps 694 mmHg 95%
21:00 -3°C° 0.1 mm 1 mps 695 mmHg 94%
22:00 -3°C° 0 mm 1 mps 695 mmHg 93%
23:00 -4°C° 0 mm 1 mps 695 mmHg 91%
Show more